Regional Weather Roundup
Issued by NWS

Home | Current Version | Previous Version | Graphics & Text | Print | Product List | Glossary On
Versions: 1 2 3 4 5 6 7 8 9 10 11 12 13 14 15 16 17 18 19 20 21 22 23 24 25 26 27 28 29 30 31 32 33 34 35 36 37 38 39 40 41 42 43 44 45 46 47 48 49 50
000
ASUS45 KPSR 062200
RWRAZ

ARIZONA HOURLY REGIONAL WEATHER ROUNDUP
NATIONAL WEATHER SERVICE PHOENIX AZ
300 PM MST MON JUL 06 2015

NOTE: FAIR INDICATES FEW OR NO CLOUDS BELOW 12,000 FEET WITH NO
SIGNIFICANT WEATHER AND/OR OBSTRUCTIONS TO VISIBILITY.

AZZ001>003-036-062300-
NORTHWEST ARIZONA

CITY           SKY/WX    TMP DP  RH WIND       PRES   REMARKS
KINGMAN        PTSUNNY   92  51  24 N17G23    30.07R
$$

AZZ004>008-015-016-018-062300-
NORTH CENTRAL ARIZONA

CITY           SKY/WX    TMP DP  RH WIND       PRES   REMARKS
GRAND CANYON   MOSUNNY   76  49  38 W14       30.27F
WILLIAMS       CLOUDY    68  50  52 W5        30.37S
PRESCOTT       PTSUNNY   83  56  39 N21       30.17F
FLAGSTAFF      NOT AVBL
PAYSON         MOSUNNY   88  48  25 VRB5G15   30.16F
PAGE           CLOUDY    83  49  30 N6        30.09F
$$

AZZ009>014-017-062300-
NORTHEAST ARIZONA

CITY           SKY/WX    TMP DP  RH WIND       PRES   REMARKS
WINSLOW        NOT AVBL
SAINT JOHNS    MOSUNNY   87  45  23 NW13      30.15F
WINDOW ROCK    LGT RAIN  74  52  46 E7        30.23S
SHOW LOW       PTSUNNY   75  50  41 W9G17     30.25F
$$

AZZ023-062300-
GREATER PHOENIX AREA

CITY           SKY/WX    TMP DP  RH WIND       PRES   REMARKS
PHOENIX        MOSUNNY  102  56  21 W9        29.86F HX 101
GLENDALE       MOSUNNY  100  64  30 S12G17    29.87F HX 103
LUKE AFB       SUNNY    102  61  25 SW14G20   29.84F HX 103
DEER VALLEY    SUNNY     97  59  28 VRB7G20   29.87F
SCOTTSDALE     SUNNY     99  57  24 SW13      29.89F
MESA-FALCON    MOSUNNY  N/A N/A N/A W12         N/A
CHANDLER       MOSUNNY  100  57  23 SW9       29.87F
$$

AZZ027-028-062300-
SOUTHWEST MARICOPA COUNTY AND PINAL COUNTY

CITY           SKY/WX    TMP DP  RH WIND       PRES   REMARKS
CASA GRANDE    MOSUNNY   97  63  32 CALM      29.89F
$$

AZZ503-504-507>509-062300-
SOUTHEAST ARIZONA

CITY           SKY/WX    TMP DP  RH WIND       PRES   REMARKS
TUCSON         LGT RAIN  92  61  35 SE3       30.00F
DAVIS-MONTHAN  TSTM      91  62  37 NW13      29.98F
NOGALES        LGT RAIN  82  63  52 W16G23    30.09S
SIERRA VISTA   CLOUDY    86  56  35 W13       30.13F THUNDER
SAFFORD        MOSUNNY   96  55  25 NW15      29.95F
$$

AZZ020-021-025-026-031-062300-
SOUTHWEST ARIZONA

CITY           SKY/WX    TMP DP  RH WIND       PRES   REMARKS
YUMA           NOT AVBL
$$

CAZ031-033-041-043-047-048-061-062300-
SOUTHERN CALIFORNIA

CITY           SKY/WX    TMP DP  RH WIND       PRES   REMARKS
DOWNTOWN L.A.  SUNNY     73  61  65 CALM      30.00F
L.A. AIRPORT   PTSUNNY   68  60  75 W10       30.01F
SAN DIEGO      CLOUDY    70  59  68 NW10      30.03F
BURBANK        SUNNY     78  59  51 S10       29.98F
ONTARIO        MOSUNNY   83  58  42 W13       29.98F
RIVERSIDE        N/A    N/A N/A N/A MISG      29.97F
PALM SPRINGS   PTSUNNY  105  54  18 N10G18    29.85F HX 103
EL CENTRO NAS  MOSUNNY  105  54  18 VRB6      29.81F HX 103
IMPERIAL       SUNNY    105  50  15 SE12      29.78F HX 102
BLYTHE         SUNNY    105  56  19 S13       29.82F HX 104
$$

NVZ020-UTZ003-062300-
SOUTHERN NEVADA-UTAH

CITY           SKY/WX    TMP DP  RH WIND       PRES   REMARKS
LAS VEGAS      NOT AVBL
SALT LAKE CITY PTSUNNY   86  51  29 NW8       30.05S
$$

NMZ009-TXZ055-062300-
NEW MEXICO-WEST TEXAS

CITY           SKY/WX    TMP DP  RH WIND       PRES   REMARKS
ALBUQUERQUE    MOSUNNY   89  50  26 CALM      30.08F
EL PASO        PTSUNNY   96  53  23 W12       29.97F
$$


........................KEY........................
SKY/WX - SKY CONDITION/WEATHER
TMP    - TEMPERATURE IN FAHRENHEIT
DP     - DEW POINT IN FAHRENHEIT
RH     - RELATIVE HUMIDITY IN PERCENT
WIND   - DIRECTION AND SPEED IN MILES PER HOUR (MPH)
VRB    - VARIABLE WIND DIRECTION
PRES   - MEAN SEA LEVEL PRESSURE IN INCHES OF MERCURY
         F - FALLING PRESSURE   R - RISING PRESSURE
         S - STEADY PRESSURE
VSB    - VISIBILITY IN MILES
HX     - HEAT INDEX IN FAHRENHEIT
WCI    - WIND CHILL INDEX IN FAHRENHEIT
TC     - TEMPERATURE IN CELSIUS WHICH IS ALSO KNOWN AS
         TEMPERATURE IN CENTIGRADE
AFB    - AIR FORCE BASE
         LUKE AFB IS LUKE AIR FORCE BASE
         DAVIS-MONTHAN IS DAVIS-MONTHAN AIR FORCE BASE
NAS    - NAVAL AIR STATION
         EL CENTRO NAS IS EL CENTRO NAVAL AIR STATION
N/A    - NOT AVAILABLE



USA.gov is the U.S. government's official web portal to all federal, state and local government web resources and services.